DLH3TX EDDF-ENGM

Flight info

Callsign DLH3TX
Flight time N/A
Altitude 39000
Route MARUN6E MARUN Y150 TOLGI DCT ALASA DCT INVOL DCT SABAK L997 LUNIP
Aircraft A319/M-SDE2E3FGIJ1LORWXYZ/HB1

Departure

Time N/A
Airport Frankfurt Main Airport (EDDF)

Arrival

Time 2026-04-30 21:51
Airport Oslo-Gardermoen International Airport (ENGM)
Time Latitude Longitude Altitude Speed Heading
2026-04-30 21:29 59.94708 11.80162 12314 ft 306 kts 14°
2026-04-30 21:30 59.98754 11.82800 12315 ft 307 kts 14°
2026-04-30 21:31 60.04840 11.86798 11236 ft 306 kts 14°
2026-04-30 21:31 60.08864 11.89458 10278 ft 302 kts 14°
2026-04-30 21:32 60.12875 11.91478 9231 ft 293 kts
2026-04-30 21:32 60.14864 11.92025 9001 ft 286 kts 360°
2026-04-30 21:32 60.16802 11.91557 8863 ft 278 kts 338°
2026-04-30 21:32 60.18461 11.89734 8613 ft 270 kts 316°
2026-04-30 21:33 60.19779 11.87085 8363 ft 268 kts 311°
2026-04-30 21:33 60.22357 11.81730 7867 ft 265 kts 311°
2026-04-30 21:33 60.23639 11.79065 7632 ft 264 kts 311°
2026-04-30 21:34 60.24916 11.76406 7385 ft 264 kts 311°
2026-04-30 21:34 60.27458 11.71109 6904 ft 262 kts 312°
2026-04-30 21:34 60.28725 11.68473 6660 ft 261 kts 312°
2026-04-30 21:35 60.29985 11.65842 6409 ft 261 kts 312°
2026-04-30 21:35 60.31244 11.63210 6154 ft 260 kts 312°
2026-04-30 21:35 60.32496 11.60585 5898 ft 260 kts 312°
2026-04-30 21:35 60.33751 11.57953 5650 ft 260 kts 311°
2026-04-30 21:36 60.34954 11.55416 5409 ft 259 kts 311°
2026-04-30 21:36 60.36187 11.52785 5166 ft 258 kts 311°
2026-04-30 21:37 60.39857 11.44907 4999 ft 257 kts 311°
2026-04-30 21:37 60.41082 11.42271 5000 ft 257 kts 311°
2026-04-30 21:37 60.42307 11.39631 4999 ft 257 kts 311°
2026-04-30 21:37 60.43536 11.36986 5001 ft 258 kts 311°
2026-04-30 21:38 60.44750 11.34383 4997 ft 258 kts 311°
2026-04-30 21:38 60.45982 11.31741 4997 ft 258 kts 311°
2026-04-30 21:38 60.47208 11.29114 4997 ft 258 kts 311°
2026-04-30 21:38 60.48437 11.26475 4998 ft 258 kts 311°
2026-04-30 21:39 60.49653 11.23863 4996 ft 247 kts 311°
2026-04-30 21:39 60.50792 11.21424 4996 ft 229 kts 311°
2026-04-30 21:39 60.51847 11.19176 4992 ft 211 kts 311°
2026-04-30 21:39 60.52830 11.17090 4992 ft 201 kts 311°
2026-04-30 21:40 60.53793 11.15052 4992 ft 200 kts 311°
2026-04-30 21:40 60.54795 11.12928 4995 ft 219 kts 311°
2026-04-30 21:40 60.55858 11.10662 4993 ft 224 kts 311°
2026-04-30 21:40 60.56936 11.08358 4991 ft 225 kts 311°
2026-04-30 21:41 60.58016 11.06044 4995 ft 226 kts 311°
2026-04-30 21:41 60.59098 11.03727 5002 ft 226 kts 311°
2026-04-30 21:41 60.60174 11.01402 4994 ft 227 kts 309°
2026-04-30 21:41 60.60873 10.98596 4991 ft 224 kts 278°
2026-04-30 21:42 60.60719 10.95495 4992 ft 224 kts 250°
2026-04-30 21:42 60.59834 10.92898 4984 ft 228 kts 223°
2026-04-30 21:42 60.58393 10.91491 4984 ft 236 kts 193°
2026-04-30 21:42 60.56751 10.91779 4990 ft 244 kts 161°
2026-04-30 21:43 60.55378 10.93657 4995 ft 249 kts 140°
2026-04-30 21:43 60.54078 10.96018 4995 ft 250 kts 140°
2026-04-30 21:43 60.52785 10.98369 4995 ft 249 kts 140°
2026-04-30 21:43 60.51490 11.00712 4998 ft 250 kts 140°
2026-04-30 21:44 60.50192 11.03050 4995 ft 249 kts 141°
2026-04-30 21:44 60.48893 11.05384 4995 ft 249 kts 141°
2026-04-30 21:44 60.47593 11.07713 4999 ft 249 kts 141°
2026-04-30 21:44 60.46295 11.10035 4999 ft 249 kts 141°
2026-04-30 21:45 60.44995 11.12356 5003 ft 249 kts 141°
2026-04-30 21:45 60.43694 11.14675 5005 ft 249 kts 141°
2026-04-30 21:45 60.42415 11.16950 4978 ft 238 kts 142°
2026-04-30 21:45 60.41013 11.18632 4565 ft 234 kts 163°
2026-04-30 21:46 60.39468 11.19173 4282 ft 219 kts 184°
2026-04-30 21:46 60.38011 11.18705 4018 ft 206 kts 200°
2026-04-30 21:46 60.36657 11.17913 3805 ft 199 kts 200°
2026-04-30 21:46 60.35357 11.17139 3580 ft 192 kts 201°
2026-04-30 21:47 60.34077 11.16402 3292 ft 190 kts 199°
2026-04-30 21:47 60.32810 11.15672 3021 ft 188 kts 199°
2026-04-30 21:47 60.31621 11.14985 2812 ft 178 kts 199°
2026-04-30 21:47 60.30490 11.14334 2586 ft 157 kts 199°
2026-04-30 21:48 60.29495 11.13750 2311 ft 142 kts 200°
2026-04-30 21:48 60.28575 11.13212 2139 ft 135 kts 199°
2026-04-30 21:48 60.27685 11.12689 1966 ft 133 kts 200°
2026-04-30 21:48 60.26804 11.12180 1787 ft 131 kts 200°
2026-04-30 21:49 60.25931 11.11678 1634 ft 130 kts 199°
2026-04-30 21:49 60.25062 11.11168 1428 ft 129 kts 197°
2026-04-30 21:49 60.24206 11.10679 1277 ft 128 kts 196°
2026-04-30 21:49 60.23355 11.10185 1093 ft 127 kts 195°
2026-04-30 21:50 60.22510 11.09694 900 ft 126 kts 195°
2026-04-30 21:50 60.21670 11.09201 763 ft 126 kts 195°
2026-04-30 21:50 60.20865 11.08731 681 ft 108 kts 195°
2026-04-30 21:50 60.20299 11.08413 677 ft 58 kts 196°
2026-04-30 21:51 60.20042 11.08292 676 ft 30 kts 183°
2026-04-30 21:51 60.19912 11.08357 675 ft 17 kts 136°
2026-04-30 21:51 60.19882 11.08520 678 ft 11 kts 105°
2026-04-30 21:51 60.19860 11.08666 678 ft 12 kts 107°
2026-04-30 21:52 60.19840 11.08808 677 ft 11 kts 104°
2026-04-30 21:52 60.19822 11.08942 677 ft 8 kts 106°
2026-04-30 21:52 60.19809 11.09025 679 ft 5 kts 107°
2026-04-30 21:52 60.19801 11.09081 683 ft 4 kts 105°
2026-04-30 21:53 60.19792 11.09152 682 ft 8 kts 106°
2026-04-30 21:53 60.19769 11.09308 683 ft 14 kts 105°
2026-04-30 21:53 60.19740 11.09506 683 ft 15 kts 107°
2026-04-30 21:53 60.19714 11.09688 683 ft 11 kts 107°
2026-04-30 21:54 60.19695 11.09799 685 ft 7 kts 105°
2026-04-30 21:54 60.19683 11.09883 685 ft 5 kts 106°
2026-04-30 21:54 60.19675 11.09942 681 ft 4 kts 105°
2026-04-30 21:54 60.19670 11.09979 685 ft 1 kts 106°
2026-04-30 21:55 60.19669 11.09982 685 ft 0 kts 106°